This demonstration page uses our WeatherBlox Daily Observations layout. Learn more.

Left ArrowRight Arrow

38.20091, -84.87328

Hourly Observations for September 27, 2021

Temp ( °F °C ) Dew Point ( °F °C ) Humidity (%) Winds ( mph kmh ) Pressure ( in mb ) Visibility ( mi km ) Precip ( " mm )
12:53 am 00:53 Clear 57 13.9 51 10.6 81 81 SSW 6 9 30.05 1018 10 16 0.00 0.00
1:53 am 01:53 Clear 58 14.4 50 10 75 75 SSW 6 9 30.04 1017 10 16 0.00 0.00
2:53 am 02:53 Clear 57 13.9 50 10 78 78 SSW 5 7 30.04 1017 10 16 0.00 0.00
3:53 am 03:53 Clear 54 12.2 50 10 87 87 Calm 30.05 1018 10 16 0.00 0.00
4:53 am 04:53 Clear 53 11.7 50 10 89 89 S 3 6 30.05 1018 10 16 0.00 0.00
5:53 am 05:53 Clear 52 11.1 49 9.4 89 89 SSW 3 6 30.05 1018 10 16 0.00 0.00
6:53 am 06:53 Clear 54 12.2 50 10 87 87 SSW 6 9 30.06 1018 10 16 0.00 0.00
7:53 am 07:53 Sunny 56 13.3 51 10.6 84 84 SSW 5 7 30.06 1018 10 16 0.00 0.00
8:53 am 08:53 Sunny 61 16.1 54 12.2 78 78 S 8 13 30.07 1018 10 16 0.00 0.00
9:53 am 09:53 Sunny 68 20 58 14.4 70 70 SW 10 17 30.06 1018 10 16 0.00 0.00
10:53 am 10:53 Sunny 72 22.2 58 14.4 61 61 SW 13 20 30.06 1018 10 16 0.00 0.00
11:53 am 11:53 Sunny 76 24.4 59 15 56 56 SW 16 26 30.04 1017 10 16 0.00 0.00
12:53 pm 12:53 Sunny 79 26.1 60 15.6 52 52 SW 14 22 30.02 1017 10 16 0.00 0.00
1:53 pm 13:53 Sunny 81 27.2 60 15.6 49 49 SSW 14 22 30.00 1016 10 16 0.00 0.00
2:53 pm 14:53 Sunny 82 27.8 61 16.1 49 49 SSW 14 22 29.97 1015 10 16 0.00 0.00
3:53 pm 15:53 Sunny 82 27.8 60 15.6 47 47 SW 12 19 29.95 1014 10 16 0.00 0.00
4:53 pm 16:53 Sunny 82 27.8 61 16.1 49 49 SW 13 20 29.94 1014 10 16 0.00 0.00
5:53 pm 17:53 Sunny 80 26.7 62 16.7 54 54 SW 13 20 29.94 1014 10 16 0.00 0.00
6:53 pm 18:53 Sunny 77 25 62 16.7 60 60 SSW 10 17 29.94 1014 10 16 0.00 0.00
7:53 pm 19:53 Clear 75 23.9 62 16.7 64 64 SSW 8 13 29.94 1014 10 16 0.00 0.00
8:53 pm 20:53 Clear 73 22.8 62 16.7 69 69 SSW 9 15 29.96 1014 10 16 0.00 0.00
9:53 pm 21:53 Clear 72 22.2 62 16.7 71 71 SSW 9 15 29.96 1015 10 16 0.00 0.00
10:53 pm 22:53 Clear 71 21.7 61 16.1 71 71 SW 10 17 29.96 1015 10 16 0.00 0.00
11:53 pm 23:53 Clear 70 21.1 61 16.1 73 73 SW 9 15 29.96 1014 10 16 0.00 0.00

Powered by AerisWeather